Regional Weather Roundup
Issued by NWS Newport/Morehead, NC

Current Version | Previous Version | Text Only | Print | Product List | Glossary Off
Versions: 1 2 3 4 5 6 7 8 9 10 11 12 13 14 15 16 17 18 19 20 21 22 23 24 25 26 27 28 29 30 31 32 33 34 35 36 37 38 39 40 41 42 43 44 45 46 47 48 49 50
000 ASUS42 KMHX 230013 RWRMHX WEATHER ROUNDUP FOR EASTERN NORTH CAROLINA NATIONAL WEATHER SERVICE NEWPORT/MOREHEAD CITY NC 700 PM EST THU FEB 22 2018 NOTE: "FAIR" INDICATES FEW OR NO CLOUDS BELOW 12,000 FEET WITH NO SIGNIFICANT WEATHER AND/OR OBSTRUCTIONS TO VISIBILITY NCZ015>017-031-032-045>047-102-103-230100- NORTH COAST CITY SKY/WX TMP DP RH WIND PRES REMARKS EDENTON FAIR 67 63 87 CALM 30.41S ELIZABETH CITY FAIR 68 64 87 S3 30.41R KITTY HAWK FAIR 66 59 79 CALM 30.41R MANTEO FAIR 63 59 86 S8 30.42R $$ NCZ045>047-081-094-103-104-230100- CENTRAL COAST CITY SKY/WX TMP DP RH WIND PRES REMARKS FRISCO FAIR 65 63 93 S8 30.44S $$ NCZ095-097-098-100-101-230100- SOUTHERN COAST CITY SKY/WX TMP DP RH WIND PRES REMARKS BEAUFORT FAIR 66 62 87 S9 30.43S CEDAR ISLAND NOT AVBL JACKSONVILLE NOT AVBL PINEY ISLAND NOT AVBL WILMINGTON FAIR 68 61 78 S6 30.42S $$ NCZ011>013-027>030-043-044-078>080-089-090>093-098-230100- COASTAL PLAIN CITY SKY/WX TMP DP RH WIND PRES REMARKS AHOSKIE FAIR 63 59 87 CALM 30.40S CLINTON FAIR 68 63 83 CALM 30.41S ELIZABETHTOWN NOT AVBL GOLDSBORO FAIR 67 61 80 CALM 30.38S GREENVILLE FAIR 68 63 83 CALM 30.41S HAVELOCK PTCLDY 68 63 84 S8 30.43S KENANSVILLE FAIR 64 63 94 CALM 30.41R KINSTON FAIR 66 63 88 CALM 30.41R NEW BERN FAIR 68 61 78 S7 30.43R RICHLANDS FAIR 68 62 81 S8 30.42R ROCKY MOUNT FAIR 65 60 84 CALM 30.40R WASHINGTON FAIR 67 62 84 CALM 30.41S WHITEVILLE FAIR 70 60 70 CALM 30.42R $$ AMZ130-135-150-152-154-156-158-170-250-252-270-ANZ085-086-088-633-658-670-230100- MARINE OBSERVATIONS STATION/POSITION TIME TEMP WIND PRES WAVE SWELL AIR SEA DIR/SP/G HT/PER HT/PER (UTC) (F) (DEG/KT/KT) (MB) (FT/S) (FT/S) CHESAPEAKE LIGHT NOT AVBL 64 E VA BEACH 2350 54 51 180/ 4/ 6 1030.9 3/16 3/16 DUCK 2342 66 45 190/ 5/ 5 1029.3 2 E DUCK 0000 49 N/A 2/15 2/15 OREGON INLET 2342 64 66 190/ 12/ 13 1029.9 13E OREGON INLT 2348 49 N/A 3/15 3/15 HATTERAS CG 2342 65 61 190/ 4/ 6 1030.5 DIAMOND BUOY 2350 72 76 250/ 12/ 14 1031.4 4/ 8 3/ 8 CAPE LOOKOUT 0000 190/ 4/ 5 1031.0 BEAUFORT LAB 2342 63 61 180/ 5/ 7 1030.7 30 SE NEW RVR IN 2308 70 71 210/ 6/ 8 1030.8 30 SE NEW RVR IN 0000 70 N/A 4/17 2/17 27 SE WRIGHTSVLE 2308 69 68 210/ 6/ 8 1030.7 5 SE WRIGHTSVLE 2308 65 62 200/ 6/ 8 1030.1 225 S CAPE HAT 2350 72 74 150/ 6/ 8 1032.1 5/ 9 5/ 9 41 SE CHARLESTON 2350 70 70 80/ 4/ 4 1030.2 5/ 9 5/ 9 $$

USA.gov is the U.S. government's official web portal to all federal, state and local government web resources and services.